[[{"header":{"parameterUnit":"m.s-1","parameterCategory":1,"la1":30.2991,"la2":30.254,"lo1":-89.0895,"lo2":-89.0444,"dy":0.0017,"dx":0.0017,"nx":28,"ny":28,"refTime":"2024-08-13T21:00:00:Z","depth":0,"parameterNumber":2,"parameterNumberName":"U-component_of_WINDS"},"data":[0,0,0,0,0,0,0,0,0,0,0,0,0,0,0,0,0,0,0,0,0,0,0,0,0,0,0,0,0,0,0,0,0,0,0,0,0,0,0,0,0,0,0,0,0,0,0,0,0,0,0,0,0,0,0,0,0,0,1.318,1.318,0,1.3199,1.32,1.32,1.3189,1.3189,1.3188,1.3188,1.3208,1.3209,1.321,0,0,0,0,0,0,0,0,0,0,0,0,0,1.3136,1.3137,1.318,1.318,1.3181,1.3199,1.32,1.32,1.3189,1.3189,1.3188,1.3188,1.3208,1.3209,1.321,0,0,0,0,0,0,0,0,0,0,0,0,0,1.3156,1.3138,1.318,1.3178,1.3178,1.3199,1.32,1.32,1.319,1.3189,1.3188,1.3187,1.3208,1.3209,1.3211,1.3236,0,0,1.3215,1.3216,0,0,0,0,0,0,0,0,1.3154,1.3157,1.3178,1.3178,1.3178,1.3191,1.3192,1.3212,1.319,1.3185,1.3188,1.3187,1.3203,1.3205,1.3211,1.3237,1.3238,1.3216,1.3217,1.3217,1.3218,0,0,0,0,0,0,0,1.3153,1.3156,1.3188,1.3178,1.3178,1.3176,1.3178,1.3196,1.3198,1.3185,1.3185,1.3187,1.3203,1.3209,1.3211,1.3238,1.3216,1.3217,1.3218,1.3219,1.3289,1.3289,0,0,0,0,0,0,1.3152,1.3155,1.3187,1.3188,1.3164,1.3178,1.318,1.3188,1.3198,1.3199,1.3188,1.3186,1.3207,1.3209,1.3212,1.3243,1.3217,1.3219,1.322,1.3288,1.3289,1.329,0,0,0,0,0,0,1.3151,1.3155,1.3186,1.3172,1.3176,1.3179,1.3188,1.3189,1.3194,1.32,1.3201,1.3193,1.3206,1.3209,1.323,1.3244,1.3219,1.3221,1.3287,1.3288,1.3289,1.3305,0,0,0,0,0,0,1.315,1.3154,1.3164,1.3172,1.3176,1.3204,1.3189,1.3189,1.3197,1.3196,1.3205,1.3206,1.3206,1.3228,1.3232,1.3245,1.3222,1.3285,1.3287,1.3289,1.3304,1.3307,1.331,0,0,0,0,0,1.3148,1.3167,1.3164,1.3168,1.3188,1.3205,1.3208,1.3207,1.3198,1.3208,1.3212,1.3206,1.3242,1.323,1.3235,1.3249,1.3284,1.3287,1.3289,1.3302,1.3306,1.331,0,0,0,0,0,0,1.316,1.3168,1.3165,1.3187,1.3196,1.3203,1.3215,1.3211,1.3222,1.3221,1.322,1.3222,1.3244,1.3248,1.3236,1.3275,1.3262,1.3265,1.3271,1.3275,1.3278,1.3276,1.3223,0,0,0,0,0,1.3165,1.3178,1.3185,1.3204,1.3208,1.3211,1.3219,1.3218,1.3226,1.323,1.3235,1.3244,1.3258,1.3267,1.3279,1.3305,1.3307,1.3316,1.332,1.3322,1.3325,1.334,1.3344,1.3297,1.3297,1.3296,0,0,1.3176,1.3182,1.319,1.3207,1.3213,1.3227,1.3214,1.3229,1.324,1.3232,1.3252,1.3257,1.3267,1.3291,1.3301,1.3295,1.3339,1.3325,1.3327,1.3328,1.3342,1.3347,1.3351,1.3298,1.3298,1.3297,0,0,1.3203,1.3209,1.3226,1.3233,1.3243,1.3245,1.3249,1.3258,1.3261,1.3281,1.3276,1.3289,1.3312,1.332,1.3327,1.3359,1.3354,1.3363,1.338,1.3394,1.3398,1.3401,1.3413,1.3417,1.3366,1.3366,1.3366,0,1.3216,1.3236,1.3235,1.3251,1.3259,1.3253,1.3271,1.3278,1.3291,1.3297,1.329,1.332,1.3326,1.3352,1.336,1.3366,1.3371,1.3362,1.3397,1.3401,1.3404,1.3415,1.342,1.3367,1.3367,1.3366,1.3366,0,1.3251,1.3266,1.3278,1.3292,1.3301,1.3318,1.332,1.333,1.3329,1.3332,1.3353,1.3361,1.3376,1.3382,1.3381,1.3408,1.3404,1.3397,1.3384,1.3409,1.342,1.3424,1.3368,1.3368,1.3368,1.3367,0,0,1.3285,1.3299,1.3304,1.331,1.3322,1.3333,1.335,1.3365,1.3373,1.3384,1.3398,1.3419,1.3413,1.3421,1.3421,1.3434,1.346,1.3425,1.3426,1.3432,1.3491,1.3496,1.3501,1.3457,1.3458,1.3458,1.3491,0,1.3313,1.3342,1.3343,1.337,1.3384,1.338,1.3395,1.3404,1.3408,1.3421,1.3425,1.344,1.3431,1.3436,1.3449,1.3454,1.3471,1.3451,1.3471,1.3472,1.3468,1.3507,1.3512,1.3541,1.3495,1.3495,1.3496,0,1.3349,1.3361,1.3389,1.34,1.3406,1.342,1.3433,1.3446,1.3457,1.3459,1.3469,1.3467,1.3485,1.3472,1.3498,1.3485,1.3493,1.3497,1.3498,1.35,1.3485,1.3509,1.3551,1.3555,1.3502,1.3502,1.3501,0,1.3371,1.3394,1.3415,1.3421,1.3433,1.3443,1.3449,1.3459,1.3468,1.3481,1.3487,1.3502,1.3509,1.3521,1.3524,1.3514,1.355,1.3537,1.3553,1.3553,1.356,1.356,1.3604,1.3566,1.3566,1.3566,1.3566,0,1.3402,1.342,1.3425,1.3437,1.3458,1.3459,1.348,1.3485,1.3494,1.3508,1.3506,1.3519,1.3522,1.3536,1.3539,1.3561,1.3564,1.3567,1.3567,1.3567,1.3567,1.3572,1.357,1.3567,1.3567,1.3567,1.3566,0,1.343,1.3434,1.3456,1.3467,1.347,1.3485,1.3494,1.3507,1.3511,1.3529,1.3534,1.354,1.3557,1.3561,1.3581,1.3583,1.3609,1.3607,1.3605,1.3605,1.362,1.3619,1.3669,1.3676,1.3634,1.3634,1.3635,0,1.3449,1.3463,1.3476,1.3485,1.3491,1.3506,1.3516,1.3518,1.3528,1.3543,1.3554,1.3571,1.3584,1.3611,1.3618,1.3634,1.3633,1.365,1.3635,1.3635,1.3633,1.3633,1.3634,1.3652,1.3653,1.3653,1.3653,0,1.3483,1.3485,1.3498,1.3513,1.3525,1.3537,1.3548,1.3556,1.356,1.3572,1.3589,1.36,1.3621,1.3637,1.3654,1.366,1.3658,1.3658,1.3662,1.3662,1.366,1.3662,1.3612,1.3657,1.3656,1.3656,1.3656,1.3656,1.3507,1.352,1.3531,1.3547,1.3556,1.3567,1.3579,1.3586,1.36,1.3617,1.3618,1.3637,1.3649,1.3671,1.3679,1.3694,1.3689,1.3696,1.3697,1.3699,1.37,1.3658,1.3697,1.3697,1.3697,1.3697,1.3697,0,1.3542,1.3549,1.3563,1.358,1.3592,1.3589,1.3602,1.3613,1.363,1.3641,1.3655,1.3675,1.3692,1.3701,1.3718,1.3729,1.3728,1.3733,1.3732,1.3734,1.3704,1.3698,1.3733,1.3733,1.3733,1.3733,1.3733,1.3733,1.3561,1.3582,1.3585,1.3611,1.3619,1.3637,1.3645,1.3656,1.3665,1.3688,1.3702,1.3708,1.3719,1.3737,1.3752,1.3754,1.3761,1.3767,1.3768,1.374,1.3736,1.3732,1.3727,1.3768,1.3768,1.3797,1.3797,1.3798]},{"header":{"parameterUnit":"m.s-1","parameterCategory":1,"la1":30.2991,"la2":30.254,"lo1":-89.0895,"lo2":-89.0444,"dy":0.0017,"dx":0.0017,"nx":28,"ny":28,"refTime":"2024-08-13T21:00:00:Z","depth":0,"parameterNumber":3,"parameterNumberName":"V-component_of_WINDS"},"data":[0,0,0,0,0,0,0,0,0,0,0,0,0,0,0,0,0,0,0,0,0,0,0,0,0,0,0,0,0,0,0,0,0,0,0,0,0,0,0,0,0,0,0,0,0,0,0,0,0,0,0,0,0,0,0,0,0,0,-0.9642,-0.9642,0,-0.9692,-0.9693,-0.9693,-0.9724,-0.9725,-0.9725,-0.9725,-0.9776,-0.9778,-0.9779,0,0,0,0,0,0,0,0,0,0,0,0,0,-0.9572,-0.9573,-0.9641,-0.9642,-0.9643,-0.9692,-0.9693,-0.9693,-0.9724,-0.9725,-0.9725,-0.9725,-0.9776,-0.9777,-0.9779,0,0,0,0,0,0,0,0,0,0,0,0,0,-0.961,-0.9573,-0.9641,-0.9664,-0.9667,-0.9692,-0.9693,-0.9694,-0.9724,-0.9725,-0.9725,-0.9725,-0.9776,-0.9777,-0.9779,-0.9786,0,0,-0.9785,-0.9786,0,0,0,0,0,0,0,0,-0.9608,-0.9613,-0.966,-0.9663,-0.9666,-0.9702,-0.9687,-0.9724,-0.9724,-0.9702,-0.9725,-0.9725,-0.9752,-0.9755,-0.9764,-0.9788,-0.979,-0.9785,-0.9786,-0.9787,-0.9787,0,0,0,0,0,0,0,-0.9605,-0.9611,-0.9662,-0.9661,-0.9664,-0.9672,-0.9678,-0.9694,-0.9725,-0.9704,-0.9707,-0.9712,-0.9753,-0.9762,-0.9766,-0.9791,-0.9785,-0.9786,-0.9788,-0.9788,-0.9824,-0.9824,0,0,0,0,0,0,-0.9599,-0.9608,-0.966,-0.9663,-0.9637,-0.9673,-0.9679,-0.969,-0.9725,-0.973,-0.9712,-0.9714,-0.9759,-0.9764,-0.9768,-0.9779,-0.9787,-0.9788,-0.979,-0.9824,-0.9824,-0.9824,0,0,0,0,0,0,-0.9597,-0.9603,-0.9658,-0.9636,-0.9644,-0.9674,-0.9686,-0.9691,-0.9701,-0.9731,-0.9736,-0.9716,-0.976,-0.9765,-0.9781,-0.9781,-0.9789,-0.9791,-0.9824,-0.9824,-0.9824,-0.98,0,0,0,0,0,0,-0.9595,-0.9603,-0.9605,-0.9636,-0.9645,-0.967,-0.9686,-0.9692,-0.9704,-0.9706,-0.9736,-0.9741,-0.976,-0.9778,-0.9783,-0.9783,-0.9792,-0.9824,-0.9824,-0.9824,-0.9801,-0.9799,-0.9797,0,0,0,0,0,-0.9593,-0.9596,-0.9605,-0.9611,-0.9649,-0.967,-0.9675,-0.9697,-0.9703,-0.9707,-0.9726,-0.974,-0.978,-0.978,-0.9785,-0.9786,-0.9825,-0.9824,-0.9824,-0.9802,-0.9799,-0.9797,0,0,0,0,0,0,-0.9564,-0.96,-0.9611,-0.9624,-0.9644,-0.9675,-0.968,-0.9694,-0.9712,-0.9713,-0.974,-0.9746,-0.976,-0.9775,-0.9774,-0.9795,-0.9804,-0.9805,-0.9785,-0.9783,-0.9781,-0.9778,-0.9794,0,0,0,0,0,-0.9559,-0.9573,-0.9605,-0.9613,-0.9623,-0.965,-0.966,-0.9675,-0.9696,-0.9705,-0.9725,-0.9746,-0.9763,-0.9774,-0.9791,-0.9803,-0.981,-0.9806,-0.9804,-0.9803,-0.9803,-0.9812,-0.9811,-0.9823,-0.9823,-0.9823,0,0,-0.9549,-0.9571,-0.9578,-0.9608,-0.9625,-0.964,-0.9656,-0.9671,-0.9682,-0.9707,-0.9724,-0.974,-0.9764,-0.9778,-0.9786,-0.9791,-0.9802,-0.9802,-0.9801,-0.9802,-0.9811,-0.981,-0.9809,-0.9822,-0.9822,-0.9823,0,0,-0.9539,-0.9556,-0.9566,-0.9583,-0.9609,-0.9627,-0.9629,-0.9659,-0.9671,-0.9688,-0.9707,-0.9721,-0.975,-0.9767,-0.9779,-0.9776,-0.979,-0.9781,-0.9772,-0.978,-0.9779,-0.9778,-0.9778,-0.9778,-0.9782,-0.9781,-0.9781,0,-0.9523,-0.9546,-0.9569,-0.9583,-0.9596,-0.962,-0.963,-0.9646,-0.9676,-0.9684,-0.969,-0.9727,-0.9745,-0.9764,-0.9764,-0.9772,-0.9777,-0.9778,-0.9777,-0.9777,-0.9776,-0.9777,-0.9776,-0.978,-0.978,-0.9781,-0.9781,0,-0.9526,-0.9542,-0.9547,-0.9576,-0.9589,-0.9601,-0.9627,-0.9637,-0.9652,-0.9669,-0.9687,-0.971,-0.9733,-0.9738,-0.9752,-0.976,-0.9762,-0.9772,-0.9782,-0.9774,-0.9774,-0.9775,-0.9779,-0.9779,-0.9779,-0.978,0,0,-0.9499,-0.9541,-0.9543,-0.9557,-0.9587,-0.96,-0.9613,-0.9636,-0.9645,-0.9665,-0.9678,-0.9702,-0.9712,-0.9725,-0.9741,-0.9748,-0.9746,-0.9758,-0.9759,-0.9755,-0.9757,-0.975,-0.975,-0.9755,-0.9755,-0.9756,-0.9756,0,-0.9494,-0.9519,-0.9541,-0.9559,-0.9574,-0.9597,-0.9609,-0.9629,-0.9646,-0.9661,-0.968,-0.9697,-0.9708,-0.9717,-0.9725,-0.9745,-0.9747,-0.9745,-0.9768,-0.9768,-0.9762,-0.975,-0.9743,-0.9742,-0.9756,-0.9756,-0.9756,0,-0.9491,-0.9511,-0.953,-0.956,-0.9568,-0.9578,-0.9601,-0.9615,-0.9639,-0.9651,-0.9667,-0.9684,-0.97,-0.9707,-0.973,-0.9728,-0.9739,-0.975,-0.975,-0.9754,-0.9762,-0.9754,-0.9742,-0.9742,-0.9756,-0.9756,-0.9756,0,-0.9471,-0.9502,-0.9518,-0.9529,-0.9564,-0.9571,-0.9586,-0.961,-0.9623,-0.9643,-0.9651,-0.9673,-0.9685,-0.9701,-0.9724,-0.9727,-0.9745,-0.9754,-0.9755,-0.9755,-0.9758,-0.9758,-0.9748,-0.9764,-0.9764,-0.9764,-0.9764,0,-0.9463,-0.9474,-0.9509,-0.9519,-0.9533,-0.9558,-0.957,-0.9587,-0.9608,-0.9622,-0.9643,-0.9656,-0.9684,-0.97,-0.9718,-0.9735,-0.9739,-0.975,-0.9755,-0.9749,-0.9747,-0.9756,-0.9757,-0.9764,-0.9764,-0.9764,-0.9764,0,-0.9443,-0.9467,-0.9486,-0.9518,-0.9526,-0.9535,-0.9562,-0.9573,-0.9591,-0.9608,-0.9614,-0.9642,-0.9662,-0.9686,-0.9714,-0.9726,-0.9741,-0.9748,-0.9733,-0.9736,-0.9737,-0.9737,-0.9733,-0.9734,-0.9748,-0.9748,-0.9748,0,-0.9437,-0.9446,-0.9479,-0.949,-0.9505,-0.9522,-0.9535,-0.956,-0.9573,-0.9602,-0.9609,-0.9631,-0.965,-0.9681,-0.9704,-0.9726,-0.9733,-0.9731,-0.9737,-0.9731,-0.9734,-0.9734,-0.9735,-0.9729,-0.9729,-0.9729,-0.9728,0,-0.9424,-0.9436,-0.9454,-0.9477,-0.9492,-0.9511,-0.9531,-0.9539,-0.9568,-0.9582,-0.9603,-0.9617,-0.9646,-0.9668,-0.9692,-0.9708,-0.9723,-0.9726,-0.9728,-0.9722,-0.9714,-0.9719,-0.973,-0.9726,-0.9727,-0.9727,-0.9727,-0.9727,-0.9412,-0.9421,-0.9447,-0.9467,-0.9484,-0.9503,-0.9515,-0.9534,-0.9552,-0.9578,-0.9592,-0.9613,-0.9637,-0.9672,-0.9687,-0.9704,-0.9709,-0.9712,-0.9712,-0.9713,-0.9711,-0.971,-0.9709,-0.9709,-0.9709,-0.9709,-0.9709,0,-0.9401,-0.9419,-0.9437,-0.9464,-0.948,-0.9493,-0.9516,-0.9528,-0.9547,-0.9568,-0.9586,-0.9611,-0.9632,-0.9657,-0.9681,-0.9689,-0.9697,-0.9695,-0.9695,-0.9698,-0.9705,-0.9701,-0.9688,-0.9688,-0.9688,-0.9688,-0.9688,-0.9688,-0.9397,-0.9415,-0.9429,-0.9456,-0.9473,-0.9494,-0.9506,-0.9524,-0.9541,-0.9568,-0.9586,-0.9602,-0.9625,-0.965,-0.9671,-0.9678,-0.9685,-0.9681,-0.969,-0.9696,-0.9698,-0.9699,-0.9696,-0.9682,-0.9682,-0.9682,-0.9682,-0.9682]}]]